Weather History for Lihue, HI

Change the Weather History Date:

Thursday, September 27, 2012

  Actual Average Record
Temperature  
Mean Temperature 79 °F 79 °F  
Max Temperature 84 °F 85 °F 88 °F (1981)
Min Temperature 74 °F 74 °F 66 °F (1977)
Degree Days  
Heating Degree Days 0 0  
Month to date heating degree days 0 0  
Since 1 July heating degree days 0 0  
Cooling Degree Days 14 14  
Month to date cooling degree days 377 393  
Year to date cooling degree days 3020 2919  
Growing Degree Days 28 (Base 50)    
Moisture  
Dew Point 67 °F    
Average Humidity 67    
Maximum Humidity 79    
Minimum Humidity 55    
Precipitation  
Precipitation T in 0.08 in 0.79 in (1987)
Month to date precipitation 0.74 1.85  
Year to date precipitation 35.87 23.30  
Snow  
Snow 0.00 in - - ()
Month to date snowfall 0.0  
Since 1 July snowfall 0.0  
Since 1 September snowfall 0.0  
Snow Depth 0.00 in    
Sea Level Pressure  
Sea Level Pressure 30.07 in    
Wind  
Wind Speed 16 mph (NE)    
Max Wind Speed 21 mph    
Max Gust Speed 24 mph    
Visibility 10 miles    
Events Rain    
T = Trace of Precipitation, MM = Missing Value Source: NWS Daily Summary

Daily Weather History Graph

Daily Weather History Graph

Search for Another Location

Airport:

Trip Planner

Search our weather history database for the weather conditions in past years. The results will help you decide how hot, cold, wet, or windy it might be!

Date:

Astronomy

Sep. 27, 2012 Rise Set
Actual Time 6:27 AM HST 6:28 PM HST
Civil Twilight 6:05 AM HST 6:50 PM HST
Nautical Twilight 5:39 AM HST 7:16 PM HST
Astronomical Twilight 5:13 AM HST 7:42 PM HST
Moon 4:57 PM HST (9/27) 4:20 AM HST (9/27)
Length of Visible Light 12h 44m
Length of Day
12h 00m
Waxing Gibbous, 95% of the Moon is Illuminated
Sep 27
Waxing Gibbous
Sep 29
Full
Oct 7
Last Quarter
Oct 15
New
Oct 21
First Quarter

Hourly Weather History & Observations

Time (HST) Temp. Heat Index Dew Point Humidity Pressure Visibility Wind Dir Wind Speed Gust Speed Precip Events Conditions
12:53 AM 75.9 °F - 66.9 °F 74% 30.08 in 10.0 mi ENE 12.7 mph - N/A   Partly Cloudy
1:53 AM 75.9 °F - 66.9 °F 74% 30.06 in 10.0 mi ENE 13.8 mph - N/A   Partly Cloudy
2:41 AM 75.2 °F - 68.0 °F 78% 30.06 in 10.0 mi ENE 15.0 mph - N/A   Mostly Cloudy
2:51 AM 75.2 °F - 66.2 °F 73% 30.06 in 10.0 mi ENE 12.7 mph - N/A   Mostly Cloudy
2:53 AM 75.9 °F - 66.9 °F 74% 30.05 in 10.0 mi ENE 12.7 mph - N/A   Mostly Cloudy
3:53 AM 75.9 °F - 68.0 °F 76% 30.04 in 10.0 mi ENE 12.7 mph - N/A   Mostly Cloudy
4:53 AM 75.9 °F - 66.0 °F 71% 30.05 in 10.0 mi ENE 13.8 mph - 0.00 in   Mostly Cloudy
5:53 AM 75.9 °F - 64.9 °F 69% 30.06 in 10.0 mi ENE 15.0 mph - N/A   Mostly Cloudy
6:53 AM 75.9 °F - 66.9 °F 74% 30.07 in 10.0 mi ENE 15.0 mph - N/A   Clear
7:53 AM 78.1 °F - 66.9 °F 68% 30.08 in 10.0 mi NE 16.1 mph - N/A   Clear
8:53 AM 80.1 °F 82.1 °F 66.0 °F 62% 30.10 in 10.0 mi NE 17.3 mph - N/A   Clear
9:53 AM 82.0 °F 84.1 °F 66.0 °F 58% 30.11 in 10.0 mi NE 17.3 mph - N/A   Partly Cloudy
10:53 AM 82.9 °F 85.4 °F 66.9 °F 58% 30.10 in 10.0 mi NE 15.0 mph - N/A   Scattered Clouds
11:53 AM 82.0 °F 84.9 °F 68.0 °F 62% 30.09 in 10.0 mi NE 18.4 mph - N/A   Scattered Clouds
12:53 PM 82.0 °F 84.5 °F 66.9 °F 60% 30.08 in 10.0 mi NE 17.3 mph - N/A   Mostly Cloudy
1:53 PM 84.0 °F 86.5 °F 66.9 °F 56% 30.06 in 10.0 mi NE 18.4 mph - N/A   Partly Cloudy
2:53 PM 82.0 °F 84.1 °F 66.0 °F 58% 30.04 in 10.0 mi NE 18.4 mph - N/A   Mostly Cloudy
3:53 PM 80.1 °F 82.7 °F 68.0 °F 67% 30.03 in 10.0 mi NE 18.4 mph - N/A   Mostly Cloudy
4:53 PM 78.1 °F - 66.9 °F 68% 30.04 in 10.0 mi NNE 16.1 mph - N/A   Overcast
5:53 PM 78.1 °F - 66.9 °F 68% 30.04 in 10.0 mi NE 16.1 mph - N/A   Clear
6:53 PM 77.0 °F - 66.9 °F 71% 30.05 in 10.0 mi NE 13.8 mph - N/A   Partly Cloudy
7:53 PM 75.9 °F - 64.9 °F 69% 30.06 in 10.0 mi NE 16.1 mph - N/A   Scattered Clouds
8:53 PM 75.9 °F - 68.0 °F 76% 30.07 in 10.0 mi NE 13.8 mph - N/A   Partly Cloudy
9:53 PM 75.9 °F - 69.1 °F 79% 30.07 in 10.0 mi NE 11.5 mph - N/A   Mostly Cloudy
10:09 PM 75.2 °F - 69.8 °F 83% 30.07 in 6.0 mi ENE 21.9 mph - 0.00 in Rain Light Rain
10:44 PM 75.2 °F - 69.8 °F 83% 30.08 in 10.0 mi NE 16.1 mph - 0.00 in   Mostly Cloudy
10:53 PM 75.0 °F - 69.1 °F 82% 30.07 in 10.0 mi NNE 13.8 mph - 0.00 in   Mostly Cloudy
11:53 PM 75.0 °F - 69.1 °F 82% 30.06 in 10.0 mi NE 12.7 mph - N/A   Scattered Clouds